Location: Fours
(44.3167°N, 6.7000°E)
Time: 08:49:06
(UTC+00:00)

H-2A R/B - Pass Details

Date: 30 November 2020
Orbit: 578 x 654 km, 98.5° (Epoch: 25 January)

Event Time Altitude Azimuth Distance (km) Brightness Sun altitude
Rises 17:35:57 0° 3° (N) 2,843 5.3 -17.4°
Reaches altitude 10° 17:38:19 10° 352° (N) 1,948 4.6 -17.8°
Maximum altitude 17:41:55 28° 293° (WNW) 1,149 4.0 -18.5°
Drops below altitude 10° 17:45:34 10° 234° (SW) 1,974 5.6 -19.1°
Sets 17:47:59 0° 223° (SW) 2,889 6.4 -19.5°
